Погода в Астипалее

Греция     36°32′49″N   26°21′07″E
темп.,
°C
ветер,
м/с
пор.,
м/с
влажн.,
%
обл.,
%
осадки,
мм/ч
давл.,
гПа
погр.,
м
18 апреля, вс
вс1800:00+19юв192564100 0.0 1012260
03:00+18ююв142072100 0.0 1011214
06:00+18юв101573100 0.0 1013129
09:00+18юв71181100 0.0 1014138
12:00+18юв91380100 0.0 1014174
15:00+18всв3381100 0.0 101520
18:00+18вюв5781100 0.0 101494
21:00+17в0083100 0.0 101511
19 апреля, пн
пн1900:00+18сз228093 0.0 101511
03:00+18ссв2277100 0.0 101311
06:00+17св4583100 0.0 101156
09:00+17сз7986100 0.0 1012132
12:00+17зсз798777 0.0 1012150
15:00+17зсз101482100 0.0 1012413
18:00+16з101578100 0.0 1011617
21:00+16з11167391 0.0 1012802
20 апреля, вт
вт2000:00+16з1414765 0.0 1013775
03:00+15з1214760 0.0 1013948
06:00+15з1212740 0.0 1013841
09:00+15з1212730 0.0 1015911
12:00+16з1011730 0.0 1016835
15:00+16зсз88700 0.0 1016652
18:00+16зсз67695 0.0 1016642
21:00+16з66720 0.0 1017659
21 апреля, ср
ср2100:00+16зюз66710 0.0 1018693
03:00+16з55750 0.0 1017555
06:00+16з44760 0.0 1017374
09:00+16зсз33745 0.0 1018414
12:00+16з447159 0.0 1019471
15:00+17зсз447192 0.0 1019423
18:00+17сз55665 0.0 1019455
21:00+16зсз45702 0.0 1020298
22 апреля, чт
чт2200:00+16зсз55690 0.0 1020364
03:00+16сз45673 0.0 1020393
06:00+16ссз456728 0.0 1019349
09:00+16ссз33675 0.0 1021309
12:00+16ссз33665 0.0 1022314
15:00+17сз3463100 0.0 1022315
18:00+17сз34625 0.0 1020261
21:00+17сз446862 0.0 102191